Location: ???????
(55.4362°N, 38.1183°E)
Time: 07:56:11
(UTC+00:00)

Oscar 11 - Pass Details

Date: 05 December 2021
Orbit: 611 x 625 km, 97.6° (Epoch: 25 January)

Event Time Altitude Azimuth Distance (km) Brightness Sun altitude
Rises 14:34:26 0° 190° (S) 2,899 11.0 -12.4°
Reaches altitude 10° 14:36:47 10° 200° (SSW) 1,999 10.3 -12.7°
Maximum altitude 14:40:44 33° 265° (W) 1,060 9.0 -13.2°
Drops below altitude 10° 14:44:43 10° 330° (NNW) 2,015 9.8 -13.8°
Sets 14:47:07 0° 340° (NNW) 2,926 10.5 -14.1°
